Regional Weather Roundup
Issued by NWS

Home | Current Version | Previous Version | Graphics & Text | Print | Product List | Glossary On
Versions: 1 2 3 4 5 6 7 8 9 10 11 12 13 14 15 16 17 18 19 20 21 22 23 24 25 26 27 28 29 30 31 32 33 34 35 36 37 38 39 40 41 42 43 44 45 46 47 48 49 50
000
ASUS44 KMEG 220900
RWRTN
TENNESSEE HOURLY STATE WEATHER ROUNDUP
NATIONAL WEATHER SERVICE MEMPHIS TN
400 AM CDT TUE APR 22 2014

TNZ002-004-019-021-049-052-054-088>092-221000-
WEST TENNESSEE

CITY           SKY/WX    TMP DP  RH WIND       PRES   REMARKS
MEMPHIS INTL   CLOUDY    62  60  93 CALM      29.91S
NWS MEMPHIS      N/A     62 N/A N/A MISG        N/A
JACKSON        CLOUDY    62  60  93 SW3       29.90S
DYERSBURG      CLOUDY    61  54  77 W3        29.91R
UNION CITY     MOCLDY    61  57  88 SW3       29.88S
LEXINGTON      CLOUDY    61  61 100 CALM      29.89F
$$

TNZ008-025-027-028-033-062-065-066-221000-
NORTH MIDDLE TENNESSEE

CITY           SKY/WX    TMP DP  RH WIND       PRES   REMARKS
NASHVILLE      CLOUDY    66  57  72 VRB7      29.89S
CLARKSVILLE    CLOUDY    65  58  78 W10       29.87F
COOKEVILLE     CLOUDY    61  55  82 CALM      29.89S
CROSSVILLE     CLOUDY    61  50  67 VRB6      29.92S
$$

TNZ061-075-076-078-094-096-097-221000-
SOUTH MIDDLE TENNESSEE

CITY           SKY/WX    TMP DP  RH WIND       PRES   REMARKS
TULLAHOMA      CLOUDY    59  57  94 W9        29.93F
WINCHESTER     CLOUDY    63  57  82 W6        29.93R
MCMINNVILLE    MOCLDY    59  59 100 W7        29.92R
COLUMBIA       CLOUDY    61  61 100 CALM      29.89F
$$

TNZ017-018-042-046-047-221000-
NORTHEAST TENNESSEE

CITY           SKY/WX    TMP DP  RH WIND       PRES   REMARKS
TRI CITIES     CLOUDY    52  45  77 CALM      29.88F
ELIZABETHTON   PTSUNNY   48  45  87 CALM      29.90S
$$

TNZ012-013-036-069-073-074-221000-
CENTRAL EAST TENNESSEE

CITY           SKY/WX    TMP DP  RH WIND       PRES   REMARKS
KNOXVILLE      CLOUDY    62  49  62 W7        29.88S
OAK RIDGE      CLOUDY    62  51  67 SW5       29.89F
$$

TNZ083-085-099-221000-
SOUTHEAST TENNESSEE

CITY           SKY/WX    TMP DP  RH WIND       PRES   REMARKS
CHATTANOOGA    MOCLDY    58  52  80 CALM      29.90F
$$

SKY/WX REPORTED AS FAIR MEANS FEW OR NO CLOUDS BELOW
12 THOUSAND FEET.




USA.gov is the U.S. government's official web portal to all federal, state and local government web resources and services.